McCook, NE

11:36 AM CST on December 11, 2019 (GMT -0600)
McCook Municipal

Weather History for KMCK - September, 2019

Change the Weather History Date:

Thursday, September 26, 2019

  Actual Average Record
Temperature  
Mean Temperature 62 °F 60 °F  
Max Temperature 79 °F 75 °F 96 °F (1919)
Min Temperature 44 °F 44 °F 25 °F (1942)
Degree Days  
Heating Degree Days 4    
Growing Degree Days 12 (Base 50)    
Moisture  
Dew Point 48 °F    
Average Humidity 63    
Maximum Humidity 86    
Minimum Humidity 33    
Precipitation  
Precipitation 0.00 in 0.05 in 0.66 in (1962)
Month to date precipitation 0.64 1.25  
Year to date precipitation 17.97 18.96  
Sea Level Pressure  
Sea Level Pressure 29.88 in    
Wind  
Wind Speed 8 mph ()    
Max Wind Speed 23 mph    
Max Gust Speed 33 mph    
Visibility 10.0 miles    
Events      
T = Trace of Precipitation, MM = Missing Value Source: Averaged Metar Reports

Daily Weather History Graph

Daily Weather History Graph

Search for Another Location

Airport or City:

Astronomy

Sep. 26, 2019 Rise Set
Actual Time 7:33 AM CDT 7:33 PM CDT
Civil Twilight 7:06 AM CDT 8:00 PM CDT
Nautical Twilight 6:34 AM CDT 8:31 PM CDT
Astronomical Twilight 6:02 AM CDT 9:03 PM CDT
Moon 4:42 AM CDT (9/26) 6:47 PM CDT (9/26)
Length of Visible Light 12h 53m
Length of Day
11h 59m
Waning Crescent, 6% of the Moon is Illuminated
Sep 26
Waning Crescent
Sep 28
New
Oct 5
First Quarter
Oct 13
Full
Oct 21
Last Quarter

Hourly Weather History & Observations

Time (CDT) Temp. Windchill Dew Point Humidity Pressure Visibility Wind Dir Wind Speed Gust Speed Precip Events Conditions
12:53 AM 48.9 °F - 42.1 °F 77% 30.05 in 10.0 mi NE 4.6 mph - N/A   Clear
1:53 AM 48.0 °F - 41.0 °F 77% 30.05 in 10.0 mi North 4.6 mph - N/A   Clear
2:53 AM 46.0 °F - 41.0 °F 83% 30.04 in 10.0 mi Calm Calm - N/A   Clear
3:53 AM 45.0 °F 41.8 °F 41.0 °F 86% 30.04 in 10.0 mi WNW 5.8 mph - N/A   Clear
4:53 AM 48.9 °F - 44.1 °F 83% 30.05 in 10.0 mi Calm Calm - N/A   Overcast
5:53 AM 50.0 °F - 44.1 °F 80% 30.06 in 10.0 mi WNW 4.6 mph - N/A   Overcast
6:53 AM 50.0 °F - 45.0 °F 83% 30.05 in 10.0 mi South 4.6 mph - N/A   Overcast
7:53 AM 52.0 °F - 45.0 °F 77% 30.04 in 10.0 mi North - - N/A   Overcast
8:53 AM 55.0 °F - 43.0 °F 64% 30.03 in 10.0 mi SW 3.5 mph - N/A   Overcast
9:53 AM 57.0 °F - 44.1 °F 62% 30.03 in 10.0 mi WSW 3.5 mph - N/A   Overcast
10:53 AM 59.0 °F - 45.0 °F 60% 30.02 in 10.0 mi SSW 8.1 mph - N/A   Overcast
11:53 AM 63.0 °F - 43.0 °F 48% 29.99 in 10.0 mi South 9.2 mph - N/A   Overcast
12:53 PM 69.1 °F - 39.0 °F 33% 29.94 in 10.0 mi South 18.4 mph 26.5 mph N/A   Overcast
1:53 PM 73.9 °F - 44.1 °F 34% 29.87 in 10.0 mi South 23.0 mph 31.1 mph N/A   Clear
2:53 PM 75.9 °F - 46.9 °F 36% 29.82 in 10.0 mi South 20.7 mph 29.9 mph N/A   Clear
3:53 PM 77.0 °F - 50.0 °F 39% 29.76 in 10.0 mi South 23.0 mph 33.4 mph N/A   Clear
4:53 PM 78.1 °F - 54.0 °F 43% 29.71 in 10.0 mi SSW 20.7 mph 33.4 mph N/A   Clear
5:53 PM 77.0 °F - 55.0 °F 47% 29.68 in 10.0 mi South 19.6 mph 28.8 mph N/A   Clear
6:53 PM 75.0 °F - 55.0 °F 50% 29.67 in 10.0 mi SSW 13.8 mph 23.0 mph 0.00 in   Clear
7:53 PM 71.1 °F - 55.9 °F 59% 29.66 in 10.0 mi South 11.5 mph - N/A   Clear
8:53 PM 68.0 °F - 57.0 °F 68% 29.65 in 10.0 mi SSE 12.7 mph - N/A   Clear
9:53 PM 66.0 °F - 57.0 °F 73% 29.63 in 10.0 mi South 11.5 mph - N/A   Clear
10:53 PM 64.9 °F - 57.0 °F 75% 29.61 in 10.0 mi South 15.0 mph - N/A   Clear
11:53 PM 64.0 °F - 57.9 °F 80% 29.59 in 10.0 mi South 10.4 mph - N/A   Clear